Voltar ao catálogo

STARLINK-35954

AtivoComunicaçõesVLEO
NORAD 66885·PAYLOAD·🇺🇸 United States

Lançado Dec 4, 2025 de Vandenberg Space Force Base

Loading…

Próximas Passagens (próximas 24 horas)

TLE

AtualizadoSource: CelesTrak SupGP

Época: Sep 15, 2026, 02:51 UTC

1 66885C 25283H   26258.11923611 -.00055649  00000+0 -16442-2 0  2587
2 66885  53.1582 220.8378 0001322  89.9708 331.5681 15.34418725    16

Acompanhe STARLINK-35954 em tempo real com AllMySat

Download on the App Store